This is the latest recevied weather packets stored in our database for station/object N8WEL. If no packets are shown the sender has not sent any weather packets the latest 1 day(s).
| Time | Temp. | Humidity | Pressure | Rain* | Wind** | Luminosity | Snow |
|---|---|---|---|---|---|---|---|
| 1778059084 | 8.33° C | 97% | 1005.9 hPa | 1.27 mm | - | - | - |
| 1778059083 | 8.33° C | 97% | 1005.9 hPa | 1.27 mm | - | - | - |
| 1778059082 | 8.33° C | 97% | 1006 hPa | 1.27 mm | - | - | - |
| 1778059081 | 8.89° C | 97% | 1007.1 hPa | 1.02 mm | - | - | - |
| 1778059080 | 8.89° C | 97% | 1007.1 hPa | 0.51 mm | - | - | - |
| 1778059079 | 8.89° C | 97% | 1007.1 hPa | 0.25 mm | - | - | - |
| 1778040507 | 9.44° C | 97% | 1006.9 hPa | 2.29 mm | - | - | - |
| 1778040506 | 9.44° C | 97% | 1007.2 hPa | 2.79 mm | - | - | - |
| 1778040506 | 9.44° C | 97% | 1007 hPa | 2.54 mm | - | - | - |
| 1778040505 | 9.44° C | 97% | 1007.4 hPa | 2.79 mm | - | - | - |
| 1778035977 | 14.44° C | 97% | 1006.4 hPa | 2.79 mm | - | - | - |
| 1778035976 | 14.44° C | 97% | 1006.4 hPa | 2.54 mm | - | - | - |
| 1778035975 | 14.44° C | 97% | 1006.4 hPa | 2.54 mm | - | - | - |
| 1778027783 | 14.44° C | 97% | 1006.4 hPa | 2.03 mm | - | - | - |
| 1778027782 | 14.44° C | 97% | 1006.1 hPa | 1.78 mm | - | - | - |
| 1778027781 | 14.44° C | 97% | 1006.1 hPa | 2.03 mm | - | - | - |
| 1778027780 | 14.44° C | 97% | 1006.2 hPa | 2.03 mm | - | - | - |
| 1778027780 | 14.44° C | 97% | 1006.1 hPa | 2.03 mm | - | - | - |
| 1778027779 | 14.44° C | 97% | 1006.2 hPa | 2.03 mm | - | - | - |
| 1778027778 | 14.44° C | 97% | 1006.1 hPa | 2.79 mm | - | - | - |
| 1778024469 | 14.44° C | 97% | 1006.5 hPa | 3.56 mm | - | - | - |
| 1778021141 | 15° C | 96% | 1006.8 hPa | 2.29 mm | - | - | - |
| 1778020816 | 15° C | 96% | 1006.7 hPa | 2.29 mm | - | - | - |
| 1778019154 | 16.11° C | 88% | 1007 hPa | 5.08 mm | - | - | - |
| 1778019153 | 16.11° C | 85% | 1007.2 hPa | 4.57 mm | - | - | - |
* Rain latest hour (hover to see other rain measurements)
** Current wind speed in m/s (hover to see current wind gust speed)